Weather in Latyshovka

Russia / Republic of Mordovia     53°57′09″N   44°24′28″E
temp.,
°C
wind,
m/s
gust,
m/s
humid.,
%
clouds,
%
prec.,
mm/h
press.,
hPa
HPBL,
m
3 march, wed
wed300:00−4wnw489770 0.1 1005194
03:00−6wnw499769 0.1 1006210
06:00−3nw6119199 0.1 1007738
09:00−6nw6119299 0.1 1009620
12:00−5nw71090100 0.1 1010661
15:00−4nw71088100 0.1 1011832
18:00−5nw51188100 0.1 1011708
21:00−6w6139594 0.2 1011430
4 march, thu
thu400:00−5wsw7139599 0.1 1009505
03:00−3wsw71395100 0.4 1008660
06:00−3wsw81393100 0.3 1005861
09:00−3wsw91594100 0.6 1003681
12:000w101593100 0.3 10011057
15:000wsw91398100 0.8 1001908
18:00−1wsw71397100 1.4 1001742
21:00−1wsw61197100 2.9 1001635
5 march, fri
fri500:00−1wsw51097100 1.0 1000450
03:00−1sw4998100 2.1 999402
06:00−3n4697100 2.5 999217
09:00−4nne5795100 3.6 1001430
12:00−4n579399 0.4 1003535
15:00−4n459099 0.6 1007520
18:00−10nne2294100 0.1 101021
21:00−13nne119897 0.1 101321
6 march, sat
sat600:00−14ene009597 0.0 101421
03:00−15ene009394 0.0 101420
06:00−16nw019373 0.0 101320
09:00−12w119141 0.0 101346
12:00−8wsw2492100 0.1 1013292
15:00−6wnw4790100 0.4 1013709
18:00−11nw489077 0.1 1014152
21:00−16nw239750 0.1 101621
7 march, sun
sun700:00−18w23940 0.0 101620
03:00−18sw34910 0.0 101628
06:00−17ssw489510 0.0 1014128
09:00−12ssw7139349 0.0 1012448
12:00−7sw91584100 0.0 1008961
15:00−5sw111881100 0.1 10041157
18:00−5sw111992100 0.3 10011195
21:00−4sw111892100 1.2 9981130